When you browse on this site, cookies collect data to enhance your experience and personalize the content and advertising you see.
Visit our Privacy Policy to learn more. By continuing to use the site, you agree to this use of cookies and data.
  • In Latvia
  • List of Countries
  • For 7 days
  • Water Temperature
  • Satellite Maps
  • Weather Map
  • Weather Widgets
  • user-avatar
    Login

    Hourly Weather Santiago del Estero

    Today, 25 May, Saturday

    Time Temperature Precipitation Wind Pressure Humidity
    00:00 +13°C° 0 mm 3 mps 743 mmHg 54%
    01:00 +12°C° 0 mm 4 mps 742 mmHg 57%
    02:00 +12°C° 0 mm 4 mps 742 mmHg 60%
    03:00 +11°C° 0 mm 4 mps 742 mmHg 62%
    04:00 +11°C° 0 mm 4 mps 741 mmHg 64%
    05:00 +11°C° 0 mm 3 mps 741 mmHg 65%
    06:00 +11°C° 0 mm 4 mps 741 mmHg 64%
    07:00 +12°C° 0 mm 4 mps 741 mmHg 63%
    08:00 +12°C° 0 mm 5 mps 742 mmHg 62%
    09:00 +14°C° 0 mm 5 mps 741 mmHg 58%
    10:00 +15°C° 0 mm 6 mps 741 mmHg 53%
    11:00 +17°C° 0 mm 7 mps 741 mmHg 49%
    12:00 +20°C° 0 mm 7 mps 740 mmHg 45%
    13:00 +22°C° 0 mm 7 mps 740 mmHg 41%
    14:00 +23°C° 0 mm 7 mps 739 mmHg 36%
    15:00 +22°C° 0 mm 6 mps 739 mmHg 40%
    16:00 +21°C° 0 mm 4 mps 739 mmHg 44%
    17:00 +20°C° 0 mm 3 mps 738 mmHg 48%
    18:00 +19°C° 0 mm 3 mps 739 mmHg 50%
    19:00 +18°C° 0 mm 3 mps 739 mmHg 52%
    20:00 +18°C° 0 mm 3 mps 739 mmHg 54%
    21:00 +17°C° 0 mm 3 mps 739 mmHg 56%
    22:00 +16°C° 0 mm 3 mps 739 mmHg 59%
    23:00 +16°C° 0 mm 3 mps 739 mmHg 61%

    Tomorrow, 26 May, Sunday

    Time Temperature Precipitation Wind Pressure Humidity
    00:00 +14°C° 0 mm 3 mps 739 mmHg 64%
    01:00 +14°C° 0 mm 3 mps 739 mmHg 67%
    02:00 +13°C° 0 mm 3 mps 739 mmHg 70%
    03:00 +13°C° 0 mm 3 mps 739 mmHg 73%
    04:00 +12°C° 0 mm 3 mps 739 mmHg 77%
    05:00 +12°C° 0 mm 2 mps 739 mmHg 80%
    06:00 +13°C° 0 mm 2 mps 739 mmHg 81%
    07:00 +13°C° 0 mm 2 mps 739 mmHg 81%
    08:00 +13°C° 0 mm 2 mps 740 mmHg 81%
    09:00 +15°C° 0 mm 2 mps 740 mmHg 73%
    10:00 +18°C° 0 mm 2 mps 740 mmHg 64%
    11:00 +20°C° 0 mm 2 mps 740 mmHg 56%
    12:00 +21°C° 0 mm 2 mps 740 mmHg 53%
    13:00 +23°C° 0 mm 2 mps 739 mmHg 50%
    14:00 +24°C° 0 mm 1 mps 739 mmHg 46%
    15:00 +24°C° 0 mm 1 mps 739 mmHg 50%
    16:00 +23°C° 0 mm 2 mps 739 mmHg 53%
    17:00 +23°C° 0 mm 2 mps 739 mmHg 56%
    18:00 +21°C° 0 mm 2 mps 739 mmHg 60%
    19:00 +19°C° 0 mm 2 mps 740 mmHg 63%
    20:00 +18°C° 0 mm 2 mps 741 mmHg 67%
    21:00 +17°C° 0 mm 2 mps 741 mmHg 70%
    22:00 +17°C° 0 mm 2 mps 741 mmHg 72%
    23:00 +16°C° 0 mm 1 mps 742 mmHg 75%

    Day after tomorrow, 27 May, Monday

    Time Temperature Precipitation Wind Pressure Humidity
    00:00 +16°C° 0 mm 1 mps 742 mmHg 75%
    01:00 +16°C° 0 mm 1 mps 742 mmHg 75%
    02:00 +18°C° 0 mm 1 mps 742 mmHg 75%
    03:00 +16°C° 0 mm 2 mps 741 mmHg 77%
    04:00 +16°C° 0 mm 2 mps 741 mmHg 79%
    05:00 +16°C° 0 mm 2 mps 741 mmHg 81%
    06:00 +16°C° 0 mm 2 mps 742 mmHg 80%
    07:00 +16°C° 0 mm 2 mps 742 mmHg 79%
    08:00 +16°C° 0 mm 2 mps 742 mmHg 79%
    09:00 +18°C° 0 mm 3 mps 742 mmHg 71%
    10:00 +20°C° 0 mm 3 mps 743 mmHg 64%
    11:00 +21°C° 0 mm 3 mps 743 mmHg 57%
    12:00 +22°C° 0 mm 3 mps 742 mmHg 55%
    13:00 +24°C° 0 mm 3 mps 741 mmHg 52%
    14:00 +25°C° 0 mm 3 mps 740 mmHg 50%
    15:00 +24°C° 0 mm 3 mps 740 mmHg 53%
    16:00 +24°C° 0 mm 2 mps 739 mmHg 56%
    17:00 +23°C° 0 mm 2 mps 739 mmHg 59%
    18:00 +21°C° 0 mm 2 mps 740 mmHg 63%
    19:00 +20°C° 0 mm 2 mps 740 mmHg 68%
    20:00 +19°C° 0 mm 2 mps 740 mmHg 72%
    21:00 +19°C° 0 mm 2 mps 741 mmHg 72%
    22:00 +20°C° 0 mm 1 mps 741 mmHg 73%
    23:00 +20°C° 0 mm 1 mps 741 mmHg 74%

    28 May, Tuesday

    Time Temperature Precipitation Wind Pressure Humidity
    00:00 +19°C° 0 mm 1 mps 740 mmHg 78%
    01:00 +18°C° 0 mm 1 mps 740 mmHg 82%
    02:00 +15°C° 0 mm 0 mps 739 mmHg 86%
    03:00 +16°C° 0 mm 1 mps 739 mmHg 88%
    04:00 +16°C° 0 mm 1 mps 739 mmHg 90%
    05:00 +15°C° 0 mm 1 mps 739 mmHg 92%
    06:00 +16°C° 0 mm 1 mps 739 mmHg 92%
    07:00 +16°C° 0 mm 1 mps 740 mmHg 91%
    08:00 +18°C° 0 mm 1 mps 740 mmHg 90%
    09:00 +19°C° 0 mm 1 mps 740 mmHg 86%
    10:00 +20°C° 0 mm 1 mps 741 mmHg 82%
    11:00 +21°C° 0 mm 1 mps 741 mmHg 78%
    12:00 +20°C° 0.1 mm 2 mps 741 mmHg 78%
    13:00 +20°C° 0.1 mm 3 mps 740 mmHg 78%
    14:00 +20°C° 0.1 mm 3 mps 740 mmHg 78%
    15:00 +19°C° 0 mm 3 mps 740 mmHg 81%
    16:00 +19°C° 0 mm 3 mps 740 mmHg 83%
    17:00 +18°C° 0 mm 3 mps 740 mmHg 86%
    18:00 +18°C° 0 mm 3 mps 741 mmHg 87%
    19:00 +18°C° 0 mm 2 mps 742 mmHg 89%
    20:00 +18°C° 0 mm 1 mps 742 mmHg 90%
    21:00 +18°C° 0 mm 1 mps 743 mmHg 90%
    22:00 +18°C° 0 mm 1 mps 743 mmHg 91%
    23:00 +18°C° 0 mm 1 mps 743 mmHg 91%

    29 May, Wednesday

    Time Temperature Precipitation Wind Pressure Humidity
    00:00 +16°C° 0 mm 1 mps 743 mmHg 91%
    01:00 +16°C° 0 mm 1 mps 743 mmHg 91%
    02:00 +16°C° 0 mm 1 mps 742 mmHg 92%
    03:00 +16°C° 0 mm 1 mps 742 mmHg 93%
    04:00 +15°C° 0 mm 1 mps 742 mmHg 94%
    05:00 +15°C° 0 mm 1 mps 742 mmHg 96%
    06:00 +15°C° 0 mm 1 mps 742 mmHg 95%
    07:00 +15°C° 0 mm 2 mps 742 mmHg 95%
    08:00 +15°C° 0 mm 2 mps 742 mmHg 94%
    09:00 +17°C° 0 mm 2 mps 742 mmHg 88%
    10:00 +18°C° 0 mm 2 mps 742 mmHg 81%
    11:00 +20°C° 0 mm 3 mps 742 mmHg 75%
    12:00 +20°C° 0 mm 3 mps 741 mmHg 72%
    13:00 +21°C° 0 mm 3 mps 740 mmHg 68%
    14:00 +23°C° 0 mm 2 mps 739 mmHg 65%
    15:00 +21°C° 0 mm 2 mps 739 mmHg 67%
    16:00 +21°C° 0 mm 2 mps 739 mmHg 69%
    17:00 +20°C° 0 mm 2 mps 739 mmHg 71%
    18:00 +20°C° 0 mm 2 mps 740 mmHg 73%
    19:00 +20°C° 0 mm 3 mps 740 mmHg 75%
    20:00 +19°C° 0 mm 3 mps 741 mmHg 77%
    21:00 +19°C° 0 mm 3 mps 741 mmHg 79%
    22:00 +19°C° 0 mm 3 mps 742 mmHg 80%
    23:00 +18°C° 0 mm 3 mps 742 mmHg 81%

    30 May, Thursday

    Time Temperature Precipitation Wind Pressure Humidity
    00:00 +18°C° 0.1 mm 3 mps 742 mmHg 82%
    01:00 +18°C° 0.1 mm 2 mps 742 mmHg 83%
    02:00 +18°C° 0.1 mm 2 mps 742 mmHg 84%
    03:00 +17°C° 0 mm 2 mps 742 mmHg 85%
    04:00 +17°C° 0 mm 2 mps 742 mmHg 86%
    05:00 +18°C° 0 mm 1 mps 742 mmHg 87%
    06:00 +17°C° 0 mm 2 mps 743 mmHg 87%
    07:00 +17°C° 0 mm 2 mps 743 mmHg 87%
    08:00 +16°C° 0 mm 2 mps 744 mmHg 87%
    09:00 +17°C° 0 mm 2 mps 744 mmHg 80%
    10:00 +19°C° 0 mm 3 mps 744 mmHg 74%
    11:00 +20°C° 0 mm 3 mps 744 mmHg 68%
    12:00 +21°C° 0 mm 3 mps 744 mmHg 63%
    13:00 +22°C° 0 mm 3 mps 743 mmHg 59%
    14:00 +22°C° 0 mm 3 mps 742 mmHg 54%
    15:00 +22°C° 0 mm 3 mps 742 mmHg 55%
    16:00 +23°C° 0 mm 2 mps 742 mmHg 57%
    17:00 +21°C° 0 mm 2 mps 742 mmHg 58%
    18:00 +21°C° 0 mm 2 mps 742 mmHg 61%
    19:00 +20°C° 0 mm 2 mps 743 mmHg 63%
    20:00 +20°C° 0 mm 2 mps 743 mmHg 65%
    21:00 +19°C° 0 mm 2 mps 743 mmHg 70%
    22:00 +18°C° 0 mm 2 mps 743 mmHg 74%
    23:00 +18°C° 0 mm 2 mps 743 mmHg 79%
    Show more